User: anonymous
Location: Unspecified
(0.0000°N, 0.0000°E)
Time: 08:12:16
(UTC+02:00)
Language:

Milstar 3 - Orbit

View from above orbital plane
View from above orbital plane
View from above satellite
View from above satellite

Ground track
Ground track

The orbit data is extracted from the following two-line orbital elements,

1 25724U 99023A   14233.08234196 0.00000000  00000-0  00000-0 0    02
2 25724  28.2146 233.1597 2127299 250.2420 109.7575  9.37441794    04
Epoch (UTC): 21 August 2014 01:58:34
Eccentricity: 0.2127299
inclination: 28.2146°
perigee height: 1102 km
apogee height: 5144 km
right ascension of ascending node: 233.1597°
argument of perigee: 250.2420°
revolutions per day: 9.37441794
mean anomaly at epoch: 109.7575°
orbit number at epoch: 0

The dashed part of the orbit path shows where the satellite is in the earth's shadow,  

DLR